Content
SEND FEEDBACK

Daily
Averages
Monthly
Summary
United States of America

MILAN, MICHIGAN


Home > North America > United States > Michigan
Elevation: 660 feet     Latitude: 42 05N     Longitude: 083 35W

WEATHER
 
SELECT A DAY
Number of Records: 207,680;   Date Range: 1/1/95 - 12/26/14
 
SHARE

PRINT THIS DATA

[ ← Previous Day ]
WEATHER ALMANAC - APRIL 26, 2013
[ Next Day → ]
[ °C ]   °F
Weather ElementAverageHighLow
Temperature47.9 °F60.1 °F (2:53 pm)30 °F (5:53 am)
Dewpoint31.8 °F37 °F (7:53 pm)24.1 °F (5:53 am)
Humidity56.2 %82 % (4:53 am)37 % (12:53 pm)
Barometer30.41 in30.47 in (9:53 am)30.35 in (7:53 pm)
Wind Speed6.6 mph13.8 mph (2:53 pm)
Wind Gust21.9 mph (3:53 pm)
Weather ElementAverage
Visibility10 mi
Wind DirectionESE (125.9 °)

Weather ElementTotal
Precipitation---
Heating Degree Days20 (Base 65)
Averaged from 22 records on April 26, 2013
WEATHER CONDITIONS BREAKOUT
WIND DIRECTION BREAKOUT
WEATHER BY HOUR - APRIL 26, 2013
[ °C ]   °F
Local TimeTemperatureDewpointHumidityBarometerVisibilityWind DirectionWind SpeedGust SpeedPrecipitationEventsConditions
1:53 AM34.0 °F25.0 °F70 %30.39 in10.0 miWest (260°)3.5 mphClear
3:53 AM34.0 °F26.1 °F73 %30.38 in10.0 miCalmClear
4:53 AM32.0 °F27.0 °F82 %30.40 in10.0 miCalmClear
5:53 AM30.0 °F24.1 °F79 %30.41 in10.0 miCalmClear
6:53 AM33.1 °F27.0 °F78 %30.42 in10.0 miCalmClear
7:53 AM37.0 °F30.9 °F79 %30.44 in10.0 miCalmClear
8:53 AM45.0 °F32.0 °F60 %30.45 in10.0 miCalmClear
9:53 AM48.9 °F32.0 °F52 %30.47 in10.0 miSouth (190°)6.9 mphClear
10:53 AM52.0 °F30.0 °F43 %30.47 in10.0 miSouth (170°)8.1 mphClear
11:53 AM54.0 °F28.9 °F38 %30.47 in10.0 miSouth (170°)10.4 mphClear
12:53 PM55.9 °F30.0 °F37 %30.46 in10.0 miSSW (210°)8.1 mphClear
1:53 PM57.9 °F32.0 °F37 %30.43 in10.0 miSSW (200°)12.7 mph17.3 mphClear
2:53 PM60.1 °F35.1 °F39 %30.41 in10.0 miSouth (190°)13.8 mph19.6 mphClear
3:53 PM60.1 °F35.1 °F39 %30.39 in10.0 miSSE (150°)12.7 mph21.9 mphClear
4:53 PM60.1 °F35.1 °F39 %30.37 in10.0 miSSE (160°)12.7 mphClear
5:53 PM59.0 °F35.1 °F41 %30.37 in10.0 miSouth (170°)12.7 mphClear
6:53 PM57.0 °F36.0 °F45 %30.37 in10.0 miSSE (150°)8.1 mphClear
7:53 PM54.0 °F37.0 °F53 %30.35 in10.0 miSSE (150°)8.1 mphClear
8:53 PM50.0 °F36.0 °F59 %30.37 in10.0 miSSE (160°)8.1 mphClear
9:53 PM48.0 °F36.0 °F63 %30.38 in10.0 miSSE (150°)8.1 mphClear
10:53 PM46.9 °F35.1 °F63 %30.38 in10.0 miSSE (160°)8.1 mphClear
11:53 PM45.0 °F35.1 °F68 %30.38 in10.0 miSE (130°)3.5 mphClear
Hourly data recorded from KYIP, located miles away from Milan, Michigan







STORIES FROM OUR PARTNERS